Terminal Aerodrome Forecast
Issued by NWS Tulsa, OK

Home | Current Version | Previous Version | Text Only | Print | Product List | Glossary On
Versions: 1 2 3 4 5 6 7 8 9 10 11 12 13 14 15 16
000
FTPQ31 PGUM 232335
TAFGUM
TAF

TAF
PTSA 232335Z 2400/2424 08011KT P6SM VCSH SCT020 SCT130=

USA.gov is the U.S. government's official web portal to all federal, state and local government web resources and services.